Freeport, IL

1:09 AM CST on December 12, 2019 (GMT -0600)
Albertus

Weather History for KFEP - October, 2019

Change the Weather History Date:

Wednesday, October 9, 2019

  Actual Average Record
Temperature  
Mean Temperature 56 °F -  
Max Temperature 69 °F 65 °F 88 °F (2010)
Min Temperature 43 °F 41 °F 24 °F (1987)
Degree Days  
Heating Degree Days 9    
Growing Degree Days 6 (Base 50)    
Moisture  
Dew Point 45 °F    
Average Humidity 72    
Maximum Humidity 97    
Minimum Humidity 40    
Precipitation  
Precipitation 0.00 in - - ()
Sea Level Pressure  
Sea Level Pressure 30.12 in    
Wind  
Wind Speed 7 mph (SE)    
Max Wind Speed 15 mph    
Max Gust Speed 21 mph    
Visibility 10 miles    
Events      
Averages and records for this station are not official NWS values.
T = Trace of Precipitation, MM = Missing Value Source: NWS Daily Summary

Daily Weather History Graph

Daily Weather History Graph

Search for Another Location

Airport or City:

Astronomy

Oct. 09, 2019 Rise Set
Actual Time 7:03 AM CDT 6:26 PM CDT
Civil Twilight 6:35 AM CDT 6:54 PM CDT
Nautical Twilight 6:03 AM CDT 7:26 PM CDT
Astronomical Twilight 5:30 AM CDT 7:59 PM CDT
Moon 5:04 PM CDT (10/9) 2:44 AM CDT (10/9)
Length of Visible Light 12h 18m
Length of Day
11h 22m
Waxing Gibbous, 85% of the Moon is Illuminated
Oct 9
Waxing Gibbous
Oct 13
Full
Oct 21
Last Quarter
Oct 27
New
Nov 4
First Quarter

Hourly Weather History & Observations

Time (CDT) Temp. Windchill Dew Point Humidity Pressure Visibility Wind Dir Wind Speed Gust Speed Precip Events Conditions
12:15 AM 46.8 °F - 41.9 °F 83% 30.12 in 10.0 mi SE 5.8 mph - N/A   Clear
12:35 AM 45.1 °F - 41.4 °F 87% 30.12 in 10.0 mi Calm Calm - N/A   Clear
12:55 AM 46.6 °F - 41.7 °F 83% 30.13 in 10.0 mi Calm Calm - N/A   Clear
1:15 AM 46.4 °F 45.2 °F 41.7 °F 84% 30.13 in 10.0 mi SE 3.5 mph - N/A   Clear
1:35 AM 44.8 °F 42.4 °F 42.3 °F 91% 30.13 in 10.0 mi SE 4.6 mph - N/A   Clear
1:55 AM 43.9 °F 40.5 °F 42.3 °F 94% 30.13 in 10.0 mi SE 5.8 mph - N/A   Clear
2:15 AM 43.5 °F 40.1 °F 42.1 °F 95% 30.13 in 10.0 mi SE 5.8 mph - N/A   Clear
2:35 AM 44.6 °F 41.4 °F 42.4 °F 92% 30.13 in 10.0 mi SSE 5.8 mph - N/A   Clear
2:55 AM 45.0 °F 41.2 °F 42.6 °F 91% 30.13 in 10.0 mi SSE 6.9 mph - N/A   Clear
3:15 AM 44.8 °F 41.6 °F 42.8 °F 93% 30.13 in 10.0 mi SE 5.8 mph - N/A   Clear
3:35 AM 45.1 °F 40.8 °F 43.0 °F 92% 30.13 in 10.0 mi SSE 8.1 mph - N/A   Clear
3:55 AM 44.8 °F 40.4 °F 43.0 °F 93% 30.13 in 10.0 mi SSE 8.1 mph - N/A   Clear
4:15 AM 43.5 °F 39.4 °F 42.4 °F 96% 30.14 in 10.0 mi SSE 6.9 mph - N/A   Clear
4:35 AM 43.5 °F 39.4 °F 42.6 °F 97% 30.14 in 10.0 mi SSE 6.9 mph - N/A   Clear
4:55 AM 44.1 °F 40.1 °F 42.6 °F 95% 30.14 in 10.0 mi SE 6.9 mph - N/A   Clear
5:15 AM 44.2 °F 41.0 °F 42.8 °F 95% 30.14 in 10.0 mi SSE 5.8 mph - N/A   Clear
5:35 AM 44.6 °F 40.7 °F 42.8 °F 93% 30.15 in 10.0 mi SSE 6.9 mph - N/A   Clear
5:55 AM 44.2 °F 39.7 °F 43.0 °F 95% 30.15 in 10.0 mi SSE 8.1 mph - N/A   Clear
6:15 AM 43.9 °F 39.3 °F 42.8 °F 96% 30.15 in 10.0 mi SSE 8.1 mph - N/A   Clear
6:35 AM 43.9 °F 39.9 °F 42.8 °F 96% 30.15 in 10.0 mi SSE 6.9 mph - N/A   Clear
6:55 AM 44.1 °F 40.1 °F 42.8 °F 95% 30.15 in 10.0 mi SSE 6.9 mph - N/A   Clear
7:15 AM 44.6 °F 40.7 °F 43.0 °F 94% 30.16 in 10.0 mi SSE 6.9 mph - N/A   Clear
7:35 AM 44.8 °F 41.0 °F 43.2 °F 94% 30.16 in 10.0 mi SSE 6.9 mph - N/A   Clear
7:55 AM 45.7 °F 42.7 °F 43.7 °F 93% 30.16 in 10.0 mi SSE 5.8 mph - N/A   Clear
8:15 AM 47.7 °F - 44.1 °F 87% 30.16 in 10.0 mi SE 5.8 mph - N/A   Clear
8:35 AM 49.8 °F - 44.6 °F 82% 30.16 in 10.0 mi SSE 8.1 mph - N/A   Clear
8:55 AM 51.4 °F - 45.0 °F 79% 30.16 in 10.0 mi SSE 8.1 mph - N/A   Clear
9:15 AM 54.0 °F - 45.5 °F 73% 30.16 in 10.0 mi SSE 8.1 mph - N/A   Clear
9:35 AM 56.5 °F - 46.2 °F 68% 30.16 in 10.0 mi SSE 9.2 mph - N/A   Clear
9:55 AM 58.6 °F - 46.6 °F 64% 30.16 in 10.0 mi SSE 9.2 mph - N/A   Clear
10:35 AM 63.0 °F - 47.7 °F 57% 30.16 in 10.0 mi South 11.5 mph - N/A   Clear
10:55 AM 64.0 °F - 46.6 °F 53% 30.16 in 10.0 mi SSE 9.2 mph - N/A   Clear
11:35 AM 66.6 °F - 45.5 °F 47% 30.16 in 10.0 mi SSE 15.0 mph 18.4 mph N/A   Clear
11:55 AM 67.5 °F - 45.0 °F 44% 30.16 in 10.0 mi South 13.8 mph - N/A   Clear
12:15 PM 67.8 °F - 44.6 °F 43% 30.15 in 10.0 mi SSE 15.0 mph 20.7 mph N/A   Clear
12:35 PM 68.2 °F - 44.2 °F 42% 30.14 in 10.0 mi SE 13.8 mph 18.4 mph N/A   Clear
12:55 PM 68.5 °F - 43.5 °F 40% 30.14 in 10.0 mi South 12.7 mph 19.6 mph N/A   Clear
1:15 PM 69.1 °F - 45.1 °F 42% 30.12 in 10.0 mi SSE 10.4 mph - N/A   Clear
1:35 PM 69.1 °F - 44.4 °F 41% 30.11 in 10.0 mi SSE 11.5 mph 17.3 mph N/A   Clear
1:55 PM 69.1 °F - 43.7 °F 40% 30.10 in 10.0 mi SSE 8.1 mph 18.4 mph N/A   Clear
2:15 PM 69.3 °F - 44.2 °F 40% 30.09 in 10.0 mi SSE 12.7 mph - N/A   Clear
2:35 PM 69.4 °F - 44.4 °F 41% 30.08 in 10.0 mi SSE 11.5 mph 17.3 mph N/A   Clear
2:55 PM 68.7 °F - 45.1 °F 43% 30.08 in 10.0 mi SSE 13.8 mph 18.4 mph N/A   Clear
3:15 PM 68.4 °F - 43.3 °F 40% 30.07 in 10.0 mi South 12.7 mph 19.6 mph N/A   Clear
3:35 PM 68.9 °F - 43.9 °F 40% 30.08 in 10.0 mi SSE 12.7 mph - N/A   Clear
3:55 PM 68.9 °F - 44.1 °F 41% 30.08 in 10.0 mi South 13.8 mph - N/A   Clear
4:15 PM 67.3 °F - 44.8 °F 44% 30.07 in 10.0 mi South 8.1 mph - N/A   Clear
4:35 PM 66.2 °F - 45.7 °F 48% 30.07 in 10.0 mi South 6.9 mph - N/A   Clear
4:55 PM 66.2 °F - 45.3 °F 47% 30.08 in 10.0 mi SSE 9.2 mph - N/A   Clear
5:15 PM 64.8 °F - 46.4 °F 51% 30.08 in 10.0 mi SE 4.6 mph - N/A   Clear
5:35 PM 62.8 °F - 47.1 °F 57% 30.08 in 10.0 mi SE 5.8 mph - N/A   Clear
5:55 PM 61.7 °F - 47.1 °F 59% 30.07 in 10.0 mi NNE 5.8 mph - N/A   Clear
6:15 PM 60.8 °F - 46.8 °F 60% 30.07 in 10.0 mi SE 4.6 mph - N/A   Clear
6:35 PM 59.0 °F - 47.3 °F 65% 30.07 in 10.0 mi SE 4.6 mph - N/A   Clear
6:55 PM 57.6 °F - 47.5 °F 69% 30.08 in 10.0 mi SE 5.8 mph - N/A   Clear
7:15 PM 56.1 °F - 47.3 °F 72% 30.08 in 10.0 mi ESE 4.6 mph - N/A   Clear
7:35 PM 55.8 °F - 47.5 °F 74% 30.08 in 10.0 mi SE 5.8 mph - N/A   Clear
7:55 PM 55.2 °F - 47.3 °F 75% 30.09 in 10.0 mi SSE 4.6 mph - N/A   Clear
8:35 PM 55.9 °F - 47.5 °F 73% 30.08 in 10.0 mi SE 5.8 mph - N/A   Clear
8:55 PM 55.6 °F - 47.3 °F 74% 30.08 in 10.0 mi SE 5.8 mph - N/A   Clear
9:15 PM 55.8 °F - 47.3 °F 73% 30.09 in 10.0 mi SE 6.9 mph - N/A   Clear
9:35 PM 55.4 °F - 47.5 °F 75% 30.08 in 10.0 mi East 6.9 mph - N/A   Clear
9:55 PM 54.7 °F - 47.5 °F 77% 30.08 in 10.0 mi SE 5.8 mph - N/A   Clear
10:15 PM 54.0 °F - 47.5 °F 79% 30.07 in 10.0 mi ESE 8.1 mph - N/A   Clear
10:35 PM 52.7 °F - 47.1 °F 81% 30.07 in 10.0 mi East 6.9 mph - N/A   Clear
10:55 PM 52.5 °F - 47.7 °F 84% 30.06 in 10.0 mi Calm Calm - N/A   Clear
11:15 PM 53.6 °F - 48.2 °F 82% 30.08 in 10.0 mi SSE 3.5 mph - N/A   Clear
11:35 PM 53.6 °F - 48.2 °F 82% 30.08 in 10.0 mi SE 4.6 mph - N/A   Clear
11:55 PM 53.6 °F - 48.2 °F 82% 30.08 in 10.0 mi SE 4.6 mph - N/A   Clear